User: anonymous   Login
Location: Tel Aviv
(32.0670°N, 34.7670°E)
Time: 14:55:53
(UTC+03:00)
Language:

LilacSat-2 - Orbit

View from above orbital plane
View from above orbital plane
View from above satellite
View from above satellite

Ground track
Ground track

The orbit data is extracted from the following two-line orbital elements,

1 40908U 15049K   25135.24566952  .00011368  00000-0  30280-3 0  9990
2 40908  97.5071 154.9897 0007565 244.3208 115.7256 15.38327679534337
Epoch (UTC): 15 May 2025 05:53:45
Eccentricity: 0.0007565
inclination: 97.5071°
perigee height: 446 km
apogee height: 456 km
right ascension of ascending node: 154.9897°
argument of perigee: 244.3208°
revolutions per day: 15.38327679
mean anomaly at epoch: 115.7256°
orbit number at epoch: 53433

The dashed part of the orbit path shows where the satellite is in the earth's shadow,  

DLR